Change the Weather History Date:

Friday, February 21, 2014

  Actual Average Record
Temperature  
Mean Temperature 30 °F 21 °F  
Max Temperature 36 °F 31 °F 57 °F (1930)
Min Temperature 23 °F 12 °F -23 °F (1917)
Degree Days  
Heating Degree Days 35 44  
Month to date heating degree days 1106 962  
Since 1 July heating degree days 6041 5574  
Moisture  
Dew Point 24 °F    
Average Humidity 84    
Maximum Humidity 100    
Minimum Humidity 68    
Precipitation  
Precipitation 0.06 in 0.05 in 1.45 in (1997)
Month to date precipitation 1.01 0.85  
Year to date precipitation 2.62 2.36  
Snow  
Snow 0.80 in 0.40 in 6.30 in (2009)
Month to date snowfall 10.2 9.6  
Since 1 July snowfall 50.5 51.7  
Snow Depth 21.00 in    
Sea Level Pressure  
Sea Level Pressure 29.34 in    
Wind  
Wind Speed 17 mph (SW)    
Max Wind Speed 32 mph    
Max Gust Speed 47 mph    
Visibility 4 miles    
Events Fog , Snow    
T = Trace of Precipitation, MM = Missing Value Source: NWS Daily Summary

Daily Weather History Graph

Daily Weather History Graph

Search for Another Location

Airport or City:

Trip Planner

Search our weather history database for the weather conditions in past years. The results will help you decide how hot, cold, wet, or windy it might be!

Date:

Astronomy

Feb. 21, 2014 Rise Set
Actual Time 7:29 AM EST 6:16 PM EST
Civil Twilight 6:59 AM EST 6:45 PM EST
Nautical Twilight 6:25 AM EST 7:19 PM EST
Astronomical Twilight 5:52 AM EST 7:52 PM EST
Moon 12:23 AM EST (2/21) 10:37 AM EST (2/21)
Length of Visible Light 11h 45m
Length of Day
10h 46m
Waning Gibbous, 61% of the Moon is Illuminated
Feb 21
Waning Gibbous
Feb 22
Last Quarter
Mar 1
New
Mar 8
First Quarter
Mar 16
Full

Hourly Weather History & Observations

Time (EST) Temp. Windchill Dew Point Humidity Pressure Visibility Wind Dir Wind Speed Gust Speed Precip Events Conditions
12:31 AM 34.0 °F 24.2 °F 33.1 °F 96% 29.25 in 1.5 mi SE 15.0 mph 25.3 mph N/A   Overcast
12:50 AM 35.6 °F 25.5 °F 33.8 °F 93% 29.23 in 0.8 mi SE 17.3 mph 26.5 mph N/A   Overcast
12:53 AM 35.1 °F 24.5 °F 34.0 °F 96% 29.26 in 0.8 mi SE 18.4 mph 26.5 mph N/A   Mist
1:12 AM 35.1 °F 26.9 °F 34.0 °F 96% 29.23 in 1.0 mi SSE 11.5 mph 27.6 mph N/A   Mist
1:43 AM 36.0 °F 26.0 °F 36.0 °F 100% 29.22 in 1.8 mi South 17.3 mph 28.8 mph 0.00 in   Overcast
1:47 AM 35.6 °F 26.6 °F 35.6 °F 100% 29.22 in 3.0 mi South 13.8 mph 28.8 mph 0.00 in   Overcast
1:53 AM 36.0 °F 26.3 °F 36.0 °F 100% 29.24 in 4.0 mi South 16.1 mph 26.5 mph 0.00 in   Overcast
2:30 AM 35.1 °F 23.0 °F 33.1 °F 92% 29.22 in 10.0 mi SW 24.2 mph 28.8 mph N/A   Overcast
2:40 AM 35.1 °F 23.8 °F 30.9 °F 85% 29.22 in 10.0 mi SSW 20.7 mph 35.7 mph N/A   Overcast
2:53 AM 35.1 °F 24.5 °F 30.0 °F 82% 29.25 in 10.0 mi SW 18.4 mph 29.9 mph N/A   Overcast
3:53 AM 35.1 °F 23.3 °F 28.9 °F 78% 29.25 in 10.0 mi SSW 23.0 mph 36.8 mph N/A   Overcast
4:53 AM 35.1 °F 22.5 °F 28.0 °F 76% 29.25 in 10.0 mi SSW 26.5 mph 40.3 mph N/A   Overcast
5:53 AM 34.0 °F 21.5 °F 28.0 °F 79% 29.25 in 10.0 mi SW 24.2 mph 34.5 mph N/A   Overcast
6:53 AM 34.0 °F 22.7 °F 27.0 °F 75% 29.24 in 10.0 mi SW 19.6 mph 33.4 mph N/A   Overcast
7:53 AM 34.0 °F 21.8 °F 26.1 °F 73% 29.25 in 10.0 mi SSW 23.0 mph 41.4 mph N/A   Overcast
1:12 PM 26.1 °F 10.7 °F 19.9 °F 78% 29.28 in 1.2 mi SW 25.3 mph 33.4 mph 0.00 in   Unknown
1:29 PM 26.1 °F 11.3 °F 21.0 °F 81% 29.28 in 0.8 mi WSW 23.0 mph 33.4 mph 0.00 in Snow Light Snow
1:53 PM 25.0 °F 10.9 °F 21.0 °F 85% 29.33 in 0.5 mi WSW 19.6 mph 27.6 mph 0.00 in Fog , Snow Snow
2:01 PM 25.0 °F 12.2 °F 21.0 °F 85% 29.29 in 0.5 mi SW 16.1 mph 27.6 mph 0.00 in Fog , Snow Snow
2:32 PM 24.1 °F 8.7 °F 19.0 °F 81% 29.30 in 0.5 mi WSW 23.0 mph 34.5 mph 0.00 in Snow Snow
2:43 PM 24.1 °F 9.4 °F 19.0 °F 81% 29.31 in 1.2 mi WSW 20.7 mph 31.1 mph 0.00 in   Haze
2:48 PM 24.8 °F 10.0 °F 19.4 °F 80% 29.31 in 0.8 mi WSW 21.9 mph 32.2 mph 0.00 in Snow Light Snow
2:53 PM 24.1 °F 9.8 °F 19.0 °F 81% 29.35 in 0.8 mi SW 19.6 mph 32.2 mph 0.00 in Snow Light Snow
3:53 PM 23.0 °F 8.0 °F 19.9 °F 88% 29.38 in 0.8 mi SW 20.7 mph 28.8 mph 0.00 in Snow Light Snow
4:37 PM 24.1 °F 9.0 °F 19.0 °F 81% 29.36 in 1.0 mi SW 21.9 mph 28.8 mph 0.00 in   Overcast
4:53 PM 24.1 °F 9.0 °F 19.0 °F 81% 29.41 in 0.8 mi WSW 21.9 mph 29.9 mph 0.00 in Snow Light Snow
5:11 PM 24.1 °F 10.1 °F 19.9 °F 84% 29.37 in 1.2 mi SW 18.4 mph 29.9 mph 0.00 in   Overcast
5:16 PM 24.1 °F 9.4 °F 19.9 °F 84% 29.38 in 0.8 mi SW 20.7 mph 31.1 mph 0.00 in Snow Light Snow
5:32 PM 24.1 °F 9.4 °F 19.0 °F 81% 29.38 in 1.2 mi WSW 20.7 mph 32.2 mph 0.00 in   Overcast
5:49 PM 24.8 °F 10.3 °F 19.4 °F 80% 29.39 in 0.8 mi SW 20.7 mph 29.9 mph 0.00 in Snow Light Snow
5:53 PM 24.1 °F 11.0 °F 19.9 °F 84% 29.43 in 0.8 mi SW 16.1 mph 29.9 mph 0.00 in Snow Light Snow
6:04 PM 24.1 °F 10.1 °F 19.9 °F 84% 29.39 in 1.0 mi SW 18.4 mph 25.3 mph 0.00 in Snow Light Snow
6:16 PM 24.1 °F 11.5 °F 19.9 °F 84% 29.40 in 1.5 mi SW 15.0 mph 26.5 mph 0.00 in   Overcast
6:31 PM 24.1 °F 9.8 °F 19.9 °F 84% 29.41 in 2.0 mi SW 19.6 mph 29.9 mph 0.00 in   Overcast
6:42 PM 24.1 °F 10.6 °F 19.9 °F 84% 29.42 in 3.0 mi SW 17.3 mph 28.8 mph 0.00 in   Overcast
6:53 PM 25.0 °F 10.9 °F 19.9 °F 81% 29.46 in 6.0 mi SW 19.6 mph 34.5 mph 0.00 in   Haze
7:53 PM 25.0 °F 11.3 °F 18.0 °F 75% 29.49 in 9.0 mi WSW 18.4 mph 29.9 mph N/A   Overcast
8:20 PM 25.0 °F 10.9 °F 17.1 °F 72% 29.46 in 10.0 mi WSW 19.6 mph 32.2 mph N/A   Overcast
8:53 PM 25.0 °F 10.9 °F 17.1 °F 72% 29.51 in 10.0 mi WSW 19.6 mph 27.6 mph N/A   Overcast
9:53 PM 25.0 °F 10.2 °F 16.0 °F 69% 29.53 in 10.0 mi WSW 21.9 mph 32.2 mph N/A   Overcast
10:53 PM 24.1 °F 9.8 °F 16.0 °F 71% 29.56 in 10.0 mi West 19.6 mph 34.5 mph 0.00 in   Overcast
11:53 PM 23.0 °F 8.3 °F 15.1 °F 72% 29.58 in 9.0 mi West 19.6 mph 35.7 mph 0.00 in   Overcast